Location: *
(29.1167°S, 130.0000°E)
Time: 16:53:17
(UTC+00:00)

NOSS 2-3 (E) - Pass Details

Date: 21 July 2019
Orbit: 595 x 1616 km, 63.4° (Epoch: 18 August)

Event Time Altitude Azimuth Distance (km) Brightness Sun altitude
Rises 10:13:07 0° 204° (SSW) 3,816 7.7 -19.6°
Reaches altitude 10° 10:16:08 10° 198° (SSW) 2,688 6.9 -20.3°
Maximum altitude 10:22:01 49° 124° (SE) 1,020 4.2 -21.5°
Enters shadow 10:22:25 48° 109° (ESE) 1,021 4.2 -21.6°
